When you browse on this site, cookies collect data to enhance your experience and personalize the content and advertising you see.
Visit our Privacy Policy to learn more. By continuing to use the site, you agree to this use of cookies and data.
  • en Suisse
  • Liste des pays
  • À 7 jours
  • Température de l'eau
  • Carte météo
  • Widgets météo
  • user-avatar
    Se connecter

    Météo par heure à Armavir

    Ce jour, 5 Juin, Vendredi

    Heure Température Précipitation Vent Pression Humidité
    00:00 +19°C° 0 mm 2 m/s 688 mmHg 43%
    01:00 +19°C° 0 mm 2 m/s 688 mmHg 43%
    02:00 +18°C° 0 mm 2 m/s 688 mmHg 44%
    03:00 +18°C° 0 mm 2 m/s 687 mmHg 44%
    04:00 +19°C° 0 mm 2 m/s 688 mmHg 46%
    05:00 +19°C° 0 mm 2 m/s 688 mmHg 47%
    06:00 +20°C° 0 mm 2 m/s 689 mmHg 48%
    07:00 +23°C° 0 mm 2 m/s 689 mmHg 42%
    08:00 +25°C° 0 mm 2 m/s 689 mmHg 36%
    09:00 +27°C° 0 mm 2 m/s 689 mmHg 28%
    10:00 +27°C° 0 mm 3 m/s 689 mmHg 26%
    11:00 +28°C° 0 mm 4 m/s 689 mmHg 24%
    12:00 +29°C° 0 mm 5 m/s 690 mmHg 22%
    13:00 +29°C° 0 mm 4 m/s 689 mmHg 21%
    14:00 +30°C° 0 mm 4 m/s 689 mmHg 21%
    15:00 +30°C° 0 mm 4 m/s 689 mmHg 20%
    16:00 +29°C° 0 mm 4 m/s 689 mmHg 22%
    17:00 +29°C° 0 mm 4 m/s 690 mmHg 24%
    18:00 +28°C° 0 mm 3 m/s 690 mmHg 26%
    19:00 +26°C° 0 mm 3 m/s 690 mmHg 29%
    20:00 +24°C° 0 mm 3 m/s 690 mmHg 32%
    21:00 +20°C° 0 mm 3 m/s 690 mmHg 35%
    22:00 +20°C° 0 mm 3 m/s 690 mmHg 38%
    23:00 +19°C° 0 mm 3 m/s 690 mmHg 42%

    Demain, 6 Juin, Samedi

    Heure Température Précipitation Vent Pression Humidité
    00:00 +18°C° 0 mm 3 m/s 690 mmHg 45%
    01:00 +17°C° 0 mm 3 m/s 690 mmHg 46%
    02:00 +17°C° 0 mm 2 m/s 690 mmHg 48%
    03:00 +16°C° 0 mm 2 m/s 690 mmHg 49%
    04:00 +17°C° 0 mm 2 m/s 690 mmHg 49%
    05:00 +18°C° 0 mm 2 m/s 691 mmHg 49%
    06:00 +18°C° 0 mm 2 m/s 691 mmHg 49%
    07:00 +20°C° 0 mm 2 m/s 691 mmHg 43%
    08:00 +23°C° 0 mm 2 m/s 691 mmHg 38%
    09:00 +25°C° 0 mm 2 m/s 692 mmHg 33%
    10:00 +26°C° 0 mm 2 m/s 692 mmHg 30%
    11:00 +28°C° 0 mm 2 m/s 692 mmHg 26%
    12:00 +29°C° 0 mm 2 m/s 692 mmHg 22%
    13:00 +30°C° 0 mm 2 m/s 691 mmHg 20%
    14:00 +30°C° 0 mm 2 m/s 691 mmHg 18%
    15:00 +31°C° 0 mm 2 m/s 691 mmHg 17%
    16:00 +30°C° 0 mm 2 m/s 691 mmHg 20%
    17:00 +29°C° 0 mm 3 m/s 691 mmHg 24%
    18:00 +29°C° 0 mm 3 m/s 691 mmHg 28%
    19:00 +26°C° 0 mm 3 m/s 691 mmHg 32%
    20:00 +24°C° 0 mm 3 m/s 691 mmHg 37%
    21:00 +21°C° 0 mm 3 m/s 691 mmHg 41%
    22:00 +20°C° 0 mm 2 m/s 691 mmHg 42%
    23:00 +19°C° 0 mm 2 m/s 691 mmHg 44%

    Après-demain, 7 Juin, Dimanche

    Heure Température Précipitation Vent Pression Humidité
    00:00 +18°C° 0 mm 2 m/s 691 mmHg 45%
    01:00 +17°C° 0 mm 2 m/s 690 mmHg 46%
    02:00 +18°C° 0 mm 1 m/s 690 mmHg 47%
    03:00 +16°C° 0 mm 1 m/s 690 mmHg 48%
    04:00 +18°C° 0 mm 1 m/s 690 mmHg 48%
    05:00 +19°C° 0 mm 1 m/s 690 mmHg 47%
    06:00 +19°C° 0 mm 1 m/s 691 mmHg 47%
    07:00 +21°C° 0 mm 1 m/s 691 mmHg 42%
    08:00 +23°C° 0 mm 1 m/s 691 mmHg 37%
    09:00 +25°C° 0 mm 1 m/s 691 mmHg 31%
    10:00 +26°C° 0 mm 2 m/s 691 mmHg 29%
    11:00 +28°C° 0 mm 2 m/s 691 mmHg 26%
    12:00 +29°C° 0 mm 2 m/s 691 mmHg 23%
    13:00 +30°C° 0 mm 2 m/s 690 mmHg 22%
    14:00 +30°C° 0 mm 2 m/s 690 mmHg 21%
    15:00 +31°C° 0 mm 2 m/s 690 mmHg 20%
    16:00 +31°C° 0 mm 2 m/s 689 mmHg 22%
    17:00 +30°C° 0 mm 2 m/s 689 mmHg 24%
    18:00 +30°C° 0 mm 2 m/s 689 mmHg 26%
    19:00 +28°C° 0 mm 2 m/s 689 mmHg 29%
    20:00 +25°C° 0 mm 2 m/s 689 mmHg 33%
    21:00 +21°C° 0 mm 2 m/s 689 mmHg 36%
    22:00 +21°C° 0 mm 2 m/s 689 mmHg 40%
    23:00 +21°C° 0 mm 1 m/s 689 mmHg 44%

    8 Juin, Lundi

    Heure Température Précipitation Vent Pression Humidité
    00:00 +20°C° 0 mm 1 m/s 688 mmHg 48%
    01:00 +20°C° 0 mm 1 m/s 688 mmHg 51%
    02:00 +19°C° 0 mm 1 m/s 688 mmHg 55%
    03:00 +19°C° 0 mm 1 m/s 688 mmHg 58%
    04:00 +19°C° 0 mm 1 m/s 688 mmHg 58%
    05:00 +20°C° 0 mm 1 m/s 688 mmHg 58%
    06:00 +21°C° 0 mm 1 m/s 688 mmHg 59%
    07:00 +23°C° 0 mm 1 m/s 688 mmHg 52%
    08:00 +25°C° 0 mm 2 m/s 688 mmHg 46%
    09:00 +27°C° 0 mm 2 m/s 688 mmHg 40%
    10:00 +28°C° 0 mm 2 m/s 688 mmHg 36%
    11:00 +29°C° 0 mm 2 m/s 688 mmHg 32%
    12:00 +31°C° 0 mm 2 m/s 688 mmHg 28%
    13:00 +32°C° 0 mm 2 m/s 688 mmHg 25%
    14:00 +32°C° 0 mm 2 m/s 688 mmHg 22%
    15:00 +34°C° 0 mm 2 m/s 687 mmHg 19%
    16:00 +34°C° 0 mm 2 m/s 687 mmHg 21%
    17:00 +32°C° 0 mm 2 m/s 687 mmHg 22%
    18:00 +32°C° 0 mm 2 m/s 687 mmHg 24%
    19:00 +29°C° 0 mm 2 m/s 687 mmHg 29%
    20:00 +26°C° 0 mm 2 m/s 687 mmHg 35%
    21:00 +23°C° 0 mm 2 m/s 687 mmHg 41%
    22:00 +23°C° 0 mm 2 m/s 687 mmHg 44%
    23:00 +21°C° 0 mm 2 m/s 687 mmHg 47%

    9 Juin, Mardi

    Heure Température Précipitation Vent Pression Humidité
    00:00 +21°C° 0 mm 1 m/s 686 mmHg 51%
    01:00 +20°C° 0 mm 1 m/s 686 mmHg 53%
    02:00 +20°C° 0 mm 1 m/s 686 mmHg 56%
    03:00 +19°C° 0 mm 1 m/s 686 mmHg 59%
    04:00 +20°C° 0 mm 1 m/s 686 mmHg 57%
    05:00 +20°C° 0 mm 2 m/s 687 mmHg 56%
    06:00 +21°C° 0 mm 2 m/s 687 mmHg 55%
    07:00 +24°C° 0 mm 2 m/s 687 mmHg 49%
    08:00 +26°C° 0 mm 1 m/s 688 mmHg 44%
    09:00 +28°C° 0 mm 1 m/s 688 mmHg 38%
    10:00 +29°C° 0 mm 1 m/s 688 mmHg 34%
    11:00 +31°C° 0 mm 1 m/s 688 mmHg 30%
    12:00 +32°C° 0 mm 1 m/s 688 mmHg 26%
    13:00 +34°C° 0 mm 2 m/s 688 mmHg 24%
    14:00 +35°C° 0 mm 2 m/s 688 mmHg 22%
    15:00 +35°C° 0 mm 3 m/s 687 mmHg 20%
    16:00 +33°C° 0.2 mm 3 m/s 687 mmHg 27%
    17:00 +30°C° 0.2 mm 3 m/s 688 mmHg 33%
    18:00 +28°C° 0.2 mm 2 m/s 688 mmHg 39%
    19:00 +26°C° 0.8 mm 3 m/s 688 mmHg 47%
    20:00 +23°C° 0.8 mm 4 m/s 689 mmHg 56%
    21:00 +20°C° 0.8 mm 4 m/s 689 mmHg 64%
    22:00 +20°C° 0 mm 4 m/s 689 mmHg 66%
    23:00 +19°C° 0 mm 3 m/s 689 mmHg 69%

    10 Juin, Mercredi

    Heure Température Précipitation Vent Pression Humidité
    00:00 +18°C° 0 mm 2 m/s 688 mmHg 71%
    01:00 +18°C° 0 mm 2 m/s 688 mmHg 71%
    02:00 +19°C° 0 mm 1 m/s 688 mmHg 72%
    03:00 +18°C° 0 mm 1 m/s 687 mmHg 73%
    04:00 +19°C° 0 mm 1 m/s 688 mmHg 70%
    05:00 +20°C° 0 mm 1 m/s 688 mmHg 67%
    06:00 +20°C° 0 mm 1 m/s 688 mmHg 64%
    07:00 +22°C° 0 mm 1 m/s 688 mmHg 58%
    08:00 +24°C° 0 mm 1 m/s 689 mmHg 52%
    09:00 +26°C° 0 mm 1 m/s 689 mmHg 46%
    10:00 +27°C° 0 mm 1 m/s 689 mmHg 42%
    11:00 +29°C° 0 mm 1 m/s 689 mmHg 38%
    12:00 +30°C° 0 mm 1 m/s 689 mmHg 33%
    13:00 +31°C° 0 mm 1 m/s 689 mmHg 31%
    14:00 +32°C° 0 mm 2 m/s 689 mmHg 28%
    15:00 +34°C° 0 mm 2 m/s 688 mmHg 25%
    16:00 +32°C° 0 mm 2 m/s 689 mmHg 27%
    17:00 +32°C° 0 mm 2 m/s 689 mmHg 30%
    18:00 +32°C° 0 mm 2 m/s 689 mmHg 32%
    19:00 +29°C° 0.1 mm 2 m/s 689 mmHg 39%
    20:00 +26°C° 0.1 mm 2 m/s 689 mmHg 45%
    21:00 +24°C° 0.1 mm 3 m/s 689 mmHg 51%
    22:00 +22°C° 0.1 mm 3 m/s 689 mmHg 53%
    23:00 +23°C° 0.1 mm 2 m/s 689 mmHg 54%
    Voir plus